Terminal Aerodrome Forecast
Issued by NWS Columbia, SC

Home | Current Version | Previous Version | Text Only | Print | Product List | Glossary On
Versions: 1 2 3 4 5 6 7 8 9 10 11 12 13 14 15 16 17 18 19 20 21 22 23 24 25 26 27 28
000
FTUS42 KCAE 221700
TAFCAE
TAF
KCAE 221723Z 2218/2318 03007KT P6SM VCSH SCT035 BKN070
      TEMPO 2219/2222 5SM -SHRA BKN035
     FM230600 04005KT P6SM BKN040=

USA.gov is the U.S. government's official web portal to all federal, state and local government web resources and services.